SB KEPS @ AMSAT $ORB14093.O Orbital Elements 14093.OSCAR
HR AMSAT ORBITAL ELEMENTS FOR OSCAR SATELLITES FROM WA5QGD FORT WORTH,TX April 3, 2014 BID: ORB14093.O TO ALL RADIO AMATEURS BT
Satellite: AO-07 Catalog number: 07530 Epoch time: 14093.84941331 Element set: 931 Inclination: 101.4659 deg RA of node: 078.1468 deg Eccentricity: 0.0012396 Arg of perigee: 080.8141 deg Mean anomaly: 034.3755 deg Mean motion: 12.53603593 rev/day Decay rate: -1.3e-07 rev/day^2 Epoch rev: 80220 Checksum: 280
Satellite: FO-29 Catalog number: 24278 Epoch time: 14093.69390422 Element set: 341 Inclination: 098.5172 deg RA of node: 117.8221 deg Eccentricity: 0.0351454 Arg of perigee: 130.8581 deg Mean anomaly: 343.3864 deg Mean motion: 13.53019434 rev/day Decay rate: -2.0e-08 rev/day^2 Epoch rev: 87059 Checksum: 304
Satellite: SO-33 Catalog number: 25509 Epoch time: 14092.79170685 Element set: 721 Inclination: 031.4318 deg RA of node: 227.5633 deg Eccentricity: 0.0349908 Arg of perigee: 173.9353 deg Mean anomaly: 309.3011 deg Mean motion: 14.29433532 rev/day Decay rate: 2.346e-05 rev/day^2 Epoch rev: 80635 Checksum: 307
Satellite: RS-22 Catalog number: 27939 Epoch time: 14093.72480977 Element set: 365 Inclination: 097.8052 deg RA of node: 271.5942 deg Eccentricity: 0.0013135 Arg of perigee: 348.8763 deg Mean anomaly: 011.2175 deg Mean motion: 14.65060929 rev/day Decay rate: 1.894e-05 rev/day^2 Epoch rev: 56182 Checksum: 334
Satellite: VO-52 Catalog number: 28650 Epoch time: 14093.78242105 Element set: 699 Inclination: 097.5615 deg RA of node: 102.4818 deg Eccentricity: 0.0026381 Arg of perigee: 046.7310 deg Mean anomaly: 313.6101 deg Mean motion: 14.85146866 rev/day Decay rate: 4.104e-05 rev/day^2 Epoch rev: 48218 Checksum: 301
Satellite: HO-68 Catalog number: 36122 Epoch time: 14093.69979222 Element set: 465 Inclination: 100.2574 deg RA of node: 147.8215 deg Eccentricity: 0.0007782 Arg of perigee: 049.4272 deg Mean anomaly: 310.7535 deg Mean motion: 13.16313737 rev/day Decay rate: -4.3e-07 rev/day^2 Epoch rev: 20663 Checksum: 300
Satellite: AO-73 Catalog number: 39444 Epoch time: 14093.15311924 Element set: 106 Inclination: 097.7784 deg RA of node: 166.3546 deg Eccentricity: 0.0063765 Arg of perigee: 125.9405 deg Mean anomaly: 234.7680 deg Mean motion: 14.77944320 rev/day Decay rate: 5.233e-05 rev/day^2 Epoch rev: 1838 Checksum: 323
/EX SB KEPS @ AMSAT $ORB14093.D Orbital Elements 14093.MICROS
HR AMSAT ORBITAL ELEMENTS FOR THE MICROSATS FROM WA5QGD FORT WORTH,TX April 3, 2014 BID: ORB14093.D TO ALL RADIO AMATEURS BT
Satellite: UO-11 Catalog number: 14781 Epoch time: 14093.19955413 Element set: 454 Inclination: 097.8600 deg RA of node: 154.7623 deg Eccentricity: 0.0009880 Arg of perigee: 071.3621 deg Mean anomaly: 288.8664 deg Mean motion: 14.81457686 rev/day Decay rate: 1.335e-05 rev/day^2 Epoch rev: 61686 Checksum: 333
Satellite: AO-16 Catalog number: 20439 Epoch time: 14093.84590532 Element set: 992 Inclination: 098.5020 deg RA of node: 032.6015 deg Eccentricity: 0.0011131 Arg of perigee: 025.7215 deg Mean anomaly: 041.9153 deg Mean motion: 14.32323342 rev/day Decay rate: 2.78e-06 rev/day^2 Epoch rev: 26384 Checksum: 268
Satellite: LO-19 Catalog number: 20442 Epoch time: 14093.06090360 Element set: 928 Inclination: 098.4727 deg RA of node: 032.7146 deg Eccentricity: 0.0011909 Arg of perigee: 017.2224 deg Mean anomaly: 342.9362 deg Mean motion: 14.32526734 rev/day Decay rate: 3.15e-06 rev/day^2 Epoch rev: 26392 Checksum: 287
Satellite: AO-27 Catalog number: 22825 Epoch time: 14093.79825186 Element set: 633 Inclination: 098.6554 deg RA of node: 040.3038 deg Eccentricity: 0.0009177 Arg of perigee: 150.1442 deg Mean anomaly: 271.8344 deg Mean motion: 14.29691362 rev/day Decay rate: 2.33e-06 rev/day^2 Epoch rev: 7015 Checksum: 302
Satellite: IO-26 Catalog number: 22826 Epoch time: 14093.79711366 Element set: 391 Inclination: 098.6496 deg RA of node: 040.5343 deg Eccentricity: 0.0009832 Arg of perigee: 143.7944 deg Mean anomaly: 216.3905 deg Mean motion: 14.29988683 rev/day Decay rate: 2.70e-06 rev/day^2 Epoch rev: 7028 Checksum: 333
Satellite: GO-32 Catalog number: 25397 Epoch time: 14093.79204814 Element set: 313 Inclination: 098.4605 deg RA of node: 054.5883 deg Eccentricity: 0.0002087 Arg of perigee: 136.5170 deg Mean anomaly: 286.0212 deg Mean motion: 14.23426358 rev/day Decay rate: 1.57e-06 rev/day^2 Epoch rev: 81728 Checksum: 303
Satellite: NO-44 Catalog number: 26931 Epoch time: 14092.79409895 Element set: 568 Inclination: 067.0519 deg RA of node: 232.8645 deg Eccentricity: 0.0005541 Arg of perigee: 277.7978 deg Mean anomaly: 082.2494 deg Mean motion: 14.30082406 rev/day Decay rate: 3.50e-06 rev/day^2 Epoch rev: 65282 Checksum: 333
Satellite: SO-50 Catalog number: 27607 Epoch time: 14093.50718690 Element set: 350 Inclination: 064.5555 deg RA of node: 099.9766 deg Eccentricity: 0.0038543 Arg of perigee: 036.6240 deg Mean anomaly: 323.7974 deg Mean motion: 14.73588355 rev/day Decay rate: 2.003e-05 rev/day^2 Epoch rev: 60647 Checksum: 329
Satellite: CO-55 Catalog number: 27844 Epoch time: 14093.02710508 Element set: 891 Inclination: 098.6997 deg RA of node: 102.8806 deg Eccentricity: 0.0010870 Arg of perigee: 129.7939 deg Mean anomaly: 291.3753 deg Mean motion: 14.21450150 rev/day Decay rate: 5.34e-06 rev/day^2 Epoch rev: 55790 Checksum: 323
Satellite: CO-57 Catalog number: 27848 Epoch time: 14093.01415491 Element set: 833 Inclination: 098.7091 deg RA of node: 102.5377 deg Eccentricity: 0.0010701 Arg of perigee: 135.6009 deg Mean anomaly: 278.4593 deg Mean motion: 14.21144657 rev/day Decay rate: 4.58e-06 rev/day^2 Epoch rev: 55782 Checksum: 316
Satellite: AO-51 Catalog number: 28375 Epoch time: 14093.78906239 Element set: 808 Inclination: 098.2434 deg RA of node: 043.2633 deg Eccentricity: 0.0082605 Arg of perigee: 216.4758 deg Mean anomaly: 143.0787 deg Mean motion: 14.41341232 rev/day Decay rate: 3.29e-06 rev/day^2 Epoch rev: 51318 Checksum: 310
Satellite: CP3 Catalog number: 31129 Epoch time: 14093.54037675 Element set: 712 Inclination: 097.9280 deg RA of node: 075.3413 deg Eccentricity: 0.0097398 Arg of perigee: 242.9929 deg Mean anomaly: 240.7094 deg Mean motion: 14.54507846 rev/day Decay rate: 1.818e-05 rev/day^2 Epoch rev: 36918 Checksum: 337
Satellite: CO-65 Catalog number: 32785 Epoch time: 14093.78504507 Element set: 911 Inclination: 097.7075 deg RA of node: 147.5028 deg Eccentricity: 0.0015294 Arg of perigee: 076.5814 deg Mean anomaly: 348.3861 deg Mean motion: 14.85009298 rev/day Decay rate: 2.972e-05 rev/day^2 Epoch rev: 32098 Checksum: 344
Satellite: PRISM Catalog number: 33493 Epoch time: 14093.76386044 Element set: 790 Inclination: 098.2441 deg RA of node: 266.3030 deg Eccentricity: 0.0017170 Arg of perigee: 329.5009 deg Mean anomaly: 030.5195 deg Mean motion: 14.88730207 rev/day Decay rate: 8.641e-05 rev/day^2 Epoch rev: 28110 Checksum: 287
Satellite: SOHLA-1 Catalog number: 33496 Epoch time: 14093.15929578 Element set: 314 Inclination: 098.1594 deg RA of node: 213.9560 deg Eccentricity: 0.0007699 Arg of perigee: 119.4111 deg Mean anomaly: 001.6338 deg Mean motion: 14.70707841 rev/day Decay rate: 1.069e-05 rev/day^2 Epoch rev: 27848 Checksum: 322
Satellite: TISAT-1 Catalog number: 36799 Epoch time: 14093.78584810 Element set: 52 Inclination: 098.0175 deg RA of node: 185.2495 deg Eccentricity: 0.0013634 Arg of perigee: 199.3956 deg Mean anomaly: 160.6690 deg Mean motion: 14.85166327 rev/day Decay rate: 6.469e-05 rev/day^2 Epoch rev: 20167 Checksum: 344
Satellite: STUDSAT Catalog number: 36801 Epoch time: 14093.15019999 Element set: 796 Inclination: 098.0320 deg RA of node: 191.2594 deg Eccentricity: 0.0010789 Arg of perigee: 178.7609 deg Mean anomaly: 245.8455 deg Mean motion: 14.94672322 rev/day Decay rate: 2.1602e-04 rev/day^2 Epoch rev: 20191 Checksum: 320
Satellite: ALMASAT-1 Catalog number: 38078 Epoch time: 14093.59654267 Element set: 985 Inclination: 069.4698 deg RA of node: 238.4778 deg Eccentricity: 0.0615640 Arg of perigee: 130.9717 deg Mean anomaly: 355.2133 deg Mean motion: 14.44122154 rev/day Decay rate: 6.5832e-04 rev/day^2 Epoch rev: 11084 Checksum: 337
Satellite: XATCOBEO Catalog number: 38082 Epoch time: 14093.69944891 Element set: 94 Inclination: 069.4532 deg RA of node: 161.5697 deg Eccentricity: 0.0323030 Arg of perigee: 087.7660 deg Mean anomaly: 053.7376 deg Mean motion: 15.20747040 rev/day Decay rate: 1.84206e-03 rev/day^2 Epoch rev: 11293 Checksum: 314
Satellite: CUBEBUG-1 Catalog number: 39153 Epoch time: 14093.80017789 Element set: 996 Inclination: 098.0446 deg RA of node: 174.2522 deg Eccentricity: 0.0016814 Arg of perigee: 228.7766 deg Mean anomaly: 131.1992 deg Mean motion: 14.77440025 rev/day Decay rate: 3.472e-05 rev/day^2 Epoch rev: 5057 Checksum: 317
Satellite: ESTCUBE-1 Catalog number: 39161 Epoch time: 14093.88786106 Element set: 973 Inclination: 098.1001 deg RA of node: 175.3305 deg Eccentricity: 0.0008606 Arg of perigee: 274.4620 deg Mean anomaly: 085.5574 deg Mean motion: 14.69783808 rev/day Decay rate: 2.711e-05 rev/day^2 Epoch rev: 4868 Checksum: 323
/EX SB KEPS @ AMSAT $ORB14093.W Orbital Elements 14093.WEATHER
HR AMSAT ORBITAL ELEMENTS FOR WEATHER SATELLITES FROM WA5QGD FORT WORTH,TX April 3, 2014 BID: ORB14093.W TO ALL RADIO AMATEURS BT
Satellite: MET-3/5 Catalog number: 21655 Epoch time: 14093.82484520 Element set: 940 Inclination: 082.5576 deg RA of node: 048.9509 deg Eccentricity: 0.0014426 Arg of perigee: 120.8894 deg Mean anomaly: 239.3649 deg Mean motion: 13.17050813 rev/day Decay rate: 4.78e-06 rev/day^2 Epoch rev: 8819 Checksum: 327
Satellite: MET-2/21 Catalog number: 22782 Epoch time: 14093.82805520 Element set: 18 Inclination: 082.5499 deg RA of node: 232.2920 deg Eccentricity: 0.0023590 Arg of perigee: 113.8782 deg Mean anomaly: 049.6954 deg Mean motion: 13.83731816 rev/day Decay rate: 1.13e-06 rev/day^2 Epoch rev: 3983 Checksum: 304
